Lacon, IL

4:31 AM CST on January 24, 2018 (GMT -0600)
Lacon

Weather History for KC75 - December, 2011

Change the Weather History Date:

Sunday, December 11, 2011

  Actual Average (KVYS) Record (KVYS)
Temperature  
Mean Temperature 34 °F -  
Max Temperature 44 °F 36 °F 57 °F (1965)
Min Temperature 25 °F 18 °F -17 °F (1972)
Degree Days  
Heating Degree Days 30    
Moisture  
Dew Point 25 °F    
Average Humidity 72    
Maximum Humidity 84    
Minimum Humidity 60    
Precipitation  
Precipitation 0.00 in - - ()
Sea Level Pressure  
Sea Level Pressure 30.39 in    
Wind  
Wind Speed 7 mph (South)    
Max Wind Speed 12 mph    
Max Gust Speed -    
Visibility 10 miles    
Events      
Averages and records for this station are not official NWS values.
T = Trace of Precipitation, MM = Missing Value Source: NWS Daily Summary

Daily Weather History Graph

Daily Weather History Graph

Search for Another Location

Airport or City:

Trip Planner

Search our weather history database for the weather conditions in past years. The results will help you decide how hot, cold, wet, or windy it might be!

Date:

Astronomy

Dec. 11, 2011 Rise Set
Actual Time 7:11 AM CST 4:29 PM CST
Civil Twilight 6:40 AM CST 5:00 PM CST
Nautical Twilight 6:06 AM CST 5:34 PM CST
Astronomical Twilight 5:33 AM CST 6:07 PM CST
Moon 5:39 PM CST (12/11) 8:00 AM CST (12/11)
Length of Visible Light 10h 19m
Length of Day
9h 17m
Full, 99% of the Moon is Illuminated
Dec 11
Full
Dec 17
Last Quarter
Dec 24
New
Jan 1
First Quarter
Jan 9
Full

Hourly Weather History & Observations

Time (CST) Temp. Windchill Dew Point Humidity Pressure Visibility Wind Dir Wind Speed Gust Speed Precip Events Conditions
12:15 AM 28.0 °F 20.8 °F 19.9 °F 72% 30.42 in 10.0 mi South 6.9 mph - N/A   Clear
12:35 AM 27.9 °F 19.8 °F 20.1 °F 73% 30.41 in 10.0 mi South 8.1 mph - N/A   Clear
12:55 AM 27.9 °F 19.8 °F 20.3 °F 73% 30.41 in 10.0 mi South 8.1 mph - N/A   Clear
1:15 AM 28.0 °F 20.0 °F 20.3 °F 73% 30.41 in 10.0 mi South 8.1 mph - N/A   Clear
1:35 AM 27.9 °F 19.8 °F 20.3 °F 73% 30.42 in 10.0 mi South 8.1 mph - N/A   Clear
1:55 AM 27.7 °F 20.4 °F 20.5 °F 74% 30.42 in 10.0 mi South 6.9 mph - N/A   Clear
2:15 AM 27.5 °F 19.3 °F 20.7 °F 75% 30.42 in 10.0 mi South 8.1 mph - N/A   Clear
2:35 AM 27.5 °F 21.1 °F 20.5 °F 75% 30.42 in 10.0 mi South 5.8 mph - N/A   Clear
2:55 AM 27.1 °F 20.7 °F 20.3 °F 75% 30.42 in 10.0 mi South 5.8 mph - N/A   Scattered Clouds
3:15 AM 26.8 °F 20.2 °F 20.3 °F 77% 30.42 in 10.0 mi SSE 5.8 mph - N/A   Clear
3:35 AM 26.6 °F 20.0 °F 20.3 °F 77% 30.41 in 10.0 mi SSE 5.8 mph - N/A   Clear
3:55 AM 26.6 °F 21.2 °F 20.3 °F 77% 30.41 in 10.0 mi SSE 4.6 mph - N/A   Clear
4:15 AM 26.4 °F 19.8 °F 20.3 °F 78% 30.41 in 10.0 mi SSE 5.8 mph - N/A   Clear
4:35 AM 26.2 °F 17.8 °F 20.3 °F 78% 30.41 in 10.0 mi South 8.1 mph - N/A   Clear
4:55 AM 27.3 °F 18.4 °F 20.7 °F 76% 30.42 in 10.0 mi South 9.2 mph - N/A   Scattered Clouds
5:15 AM 26.8 °F 19.3 °F 20.3 °F 77% 30.43 in 10.0 mi South 6.9 mph - N/A   Clear
5:35 AM 26.6 °F 20.0 °F 20.7 °F 78% 30.42 in 10.0 mi SSE 5.8 mph - N/A   Clear
5:55 AM 26.6 °F 19.1 °F 20.8 °F 79% 30.43 in 10.0 mi SSE 6.9 mph - N/A   Clear
6:15 AM 26.6 °F 19.1 °F 21.2 °F 80% 30.43 in 10.0 mi South 6.9 mph - N/A   Clear
6:35 AM 26.4 °F 18.9 °F 21.2 °F 81% 30.42 in 10.0 mi SSE 6.9 mph - N/A   Clear
6:55 AM 25.2 °F 18.3 °F 20.7 °F 83% 30.43 in 10.0 mi SSE 5.8 mph - N/A   Clear
7:15 AM 25.2 °F 17.3 °F 20.8 °F 84% 30.43 in 10.0 mi SSE 6.9 mph - N/A   Clear
7:35 AM 25.3 °F 18.5 °F 21.2 °F 84% 30.43 in 10.0 mi SSE 5.8 mph - N/A   Clear
7:55 AM 27.9 °F 21.5 °F 22.5 °F 80% 30.43 in 10.0 mi South 5.8 mph - N/A   Clear
8:15 AM 29.1 °F 21.3 °F 22.8 °F 77% 30.43 in 10.0 mi South 8.1 mph - N/A   Clear
8:35 AM 30.0 °F 21.7 °F 23.2 °F 76% 30.43 in 10.0 mi South 9.2 mph - N/A   Clear
8:55 AM 32.0 °F 24.8 °F 24.8 °F 75% 30.43 in 10.0 mi South 8.1 mph - N/A   Clear
9:15 AM 32.0 °F 24.8 °F 24.4 °F 74% 30.43 in 10.0 mi South 8.1 mph - N/A   Clear
9:35 AM 33.1 °F 26.1 °F 25.2 °F 73% 30.43 in 10.0 mi South 8.1 mph - N/A   Clear
9:55 AM 34.2 °F 29.0 °F 25.7 °F 71% 30.43 in 10.0 mi South 5.8 mph - N/A   Clear
10:15 AM 35.6 °F 30.7 °F 26.4 °F 69% 30.42 in 10.0 mi South 5.8 mph - N/A   Clear
10:35 AM 36.1 °F 30.6 °F 26.6 °F 68% 30.42 in 10.0 mi SSW 6.9 mph - N/A   Clear
10:55 AM 37.4 °F 32.1 °F 28.4 °F 70% 30.41 in 10.0 mi SSW 6.9 mph - N/A   Clear
11:15 AM 38.7 °F 32.9 °F 28.0 °F 66% 30.40 in 10.0 mi SSW 8.1 mph - N/A   Clear
11:35 AM 39.9 °F 34.5 °F 28.9 °F 65% 30.39 in 10.0 mi SSW 8.1 mph - N/A   Clear
11:55 AM 41.2 °F 35.5 °F 29.7 °F 64% 30.38 in 10.0 mi South 9.2 mph - N/A   Clear
12:15 PM 41.4 °F 35.2 °F 29.7 °F 63% 30.37 in 10.0 mi SSW 10.4 mph - N/A   Clear
12:35 PM 41.9 °F 36.3 °F 30.2 °F 63% 30.36 in 10.0 mi South 9.2 mph - N/A   Scattered Clouds
12:55 PM 42.6 °F 36.3 °F 30.6 °F 62% 30.36 in 10.0 mi South 11.5 mph - N/A   Clear
1:15 PM 43.0 °F 37.7 °F 30.9 °F 62% 30.35 in 10.0 mi South 9.2 mph - N/A   Clear
1:35 PM 44.1 °F 40.1 °F 31.6 °F 62% 30.35 in 10.0 mi South 6.9 mph - N/A   Clear
1:55 PM 44.1 °F 39.0 °F 31.5 °F 61% 30.34 in 10.0 mi SSW 9.2 mph - N/A   Clear
2:15 PM 44.4 °F 40.0 °F 31.3 °F 60% 30.33 in 10.0 mi SSW 8.1 mph - N/A   Clear
2:35 PM 44.8 °F 39.9 °F 31.5 °F 60% 30.33 in 10.0 mi SSW 9.2 mph - N/A   Clear
2:55 PM 44.6 °F 39.7 °F 31.5 °F 60% 30.33 in 10.0 mi SSW 9.2 mph - N/A   Clear
3:15 PM 44.2 °F 39.2 °F 31.6 °F 61% 30.34 in 10.0 mi SSW 9.2 mph - N/A   Clear
3:35 PM 43.7 °F 39.7 °F 31.8 °F 63% 30.34 in 10.0 mi South 6.9 mph - N/A   Clear
3:55 PM 42.8 °F 38.6 °F 31.6 °F 65% 30.34 in 10.0 mi South 6.9 mph - N/A   Clear
4:15 PM 41.7 °F 37.3 °F 31.5 °F 67% 30.34 in 10.0 mi South 6.9 mph - N/A   Clear
4:35 PM 40.5 °F 37.3 °F 31.1 °F 69% 30.34 in 10.0 mi SSE 4.6 mph - N/A   Clear
4:55 PM 39.2 °F 35.9 °F 32.0 °F 75% 30.34 in 10.0 mi SSE 4.6 mph - N/A   Clear
5:15 PM 38.5 °F 35.0 °F 31.1 °F 75% 30.34 in 10.0 mi SSE 4.6 mph - N/A   Clear
5:35 PM 37.4 °F 32.8 °F 30.9 °F 77% 30.34 in 10.0 mi SSE 5.8 mph - N/A   Clear
5:55 PM 36.9 °F 33.1 °F 30.9 °F 79% 30.35 in 10.0 mi SSE 4.6 mph - N/A   Clear
6:15 PM 37.4 °F 32.1 °F 31.5 °F 79% 30.35 in 10.0 mi SSE 6.9 mph - N/A   Clear
6:35 PM 36.7 °F 31.2 °F 30.9 °F 80% 30.35 in 10.0 mi SSE 6.9 mph - N/A   Clear
6:55 PM 36.1 °F 31.4 °F 31.1 °F 82% 30.36 in 10.0 mi SSE 5.8 mph - N/A   Clear
7:15 PM 36.1 °F 30.6 °F 30.9 °F 81% 30.35 in 10.0 mi SSE 6.9 mph - N/A   Clear
7:35 PM 35.6 °F 30.7 °F 30.2 °F 81% 30.35 in 10.0 mi SSE 5.8 mph - N/A   Clear
7:55 PM 34.9 °F 29.9 °F 29.8 °F 82% 30.35 in 10.0 mi SSE 5.8 mph - N/A   Clear
8:15 PM 34.0 °F 29.8 °F 29.3 °F 83% 30.36 in 10.0 mi South 4.6 mph - N/A   Clear
8:35 PM 33.4 °F 28.1 °F 28.9 °F 84% 30.36 in 10.0 mi SSE 5.8 mph - N/A   Scattered Clouds
8:55 PM 33.3 °F 27.9 °F 28.9 °F 84% 30.36 in 10.0 mi SSE 5.8 mph - N/A   Scattered Clouds
9:15 PM 32.9 °F 26.7 °F 28.4 °F 84% 30.36 in 10.0 mi SSE 6.9 mph - N/A   Clear
9:35 PM 32.4 °F 27.9 °F 28.0 °F 84% 30.36 in 10.0 mi SSE 4.6 mph - N/A   Clear
9:55 PM 32.0 °F 27.5 °F 27.5 °F 83% 30.37 in 10.0 mi South 4.6 mph - N/A   Clear
10:15 PM 32.2 °F 28.9 °F 27.5 °F 83% 30.36 in 10.0 mi SSE 3.5 mph - N/A   Clear
10:35 PM 32.0 °F 27.5 °F 27.3 °F 83% 30.36 in 10.0 mi SSE 4.6 mph - N/A   Clear
11:15 PM 32.0 °F 26.4 °F 26.6 °F 80% 30.36 in 10.0 mi SSE 5.8 mph - N/A   Clear
11:35 PM 32.0 °F 27.5 °F 26.6 °F 80% 30.36 in 10.0 mi SSE 4.6 mph - N/A   Clear
11:55 PM 31.5 °F 25.8 °F 26.6 °F 82% 30.36 in 10.0 mi SE 5.8 mph - N/A   Clear